| time (UTC) | temp F | wind direction | speed MPH | gust MPH | rain 1hr in | rain 24hr in | rain mn in | humidity % | barometer mb |
| 20260831142243 | 71 | 143 | 0.0 | 1.0 | 0.00 | 0.04 | 0.00 | 81 | 1020.6 |
| 20260831140028 | 69 | 82 | 0.0 | 1.0 | 0.00 | 0.04 | 0.00 | 87 | 1020.5 |
| 20260831135047 | 69 | 74 | 0.0 | 0.0 | 0.00 | 0.04 | 0.00 | 88 | 1020.4 |
| 20260831132908 | 68 | 229 | 0.0 | 0.0 | 0.00 | 0.04 | 0.00 | 92 | 1020.5 |
| 20260831131859 | 67 | 214 | 0.0 | 2.0 | 0.00 | 0.04 | 0.00 | 93 | 1020.4 |
| 20260831130905 | 67 | 219 | 0.0 | 0.0 | 0.00 | 0.04 | 0.00 | 96 | 1020.5 |
| 20260831125926 | 66 | 219 | 0.0 | 0.0 | 0.00 | 0.04 | 0.00 | 97 | 1020.4 |
| 20260831124929 | 66 | 210 | 0.0 | 0.0 | 0.00 | 0.04 | 0.00 | 98 | 1020.4 |
| 20260831123908 | 66 | 248 | 0.0 | 0.0 | 0.00 | 0.04 | 0.00 | 98 | 1020.5 |
| 20260831122907 | 65 | 249 | 0.0 | 0.0 | 0.00 | 0.04 | 0.00 | 98 | 1020.5 |
| 20260831120821 | 64 | 241 | 0.0 | 1.0 | 0.00 | 0.04 | 0.00 | 98 | 1020.5 |
| 20260831115836 | 64 | 200 | 0.0 | 0.0 | 0.00 | 0.04 | 0.00 | 98 | 1020.4 |
| 20260831114804 | 63 | 195 | 0.0 | 0.0 | 0.00 | 0.04 | 0.00 | 98 | 1020.3 |
| 20260831113829 | 63 | 195 | 0.0 | 0.0 | 0.00 | 0.04 | 0.00 | 98 | 1020.2 |
| 20260831112830 | 62 | 195 | 0.0 | 0.0 | 0.00 | 0.04 | 0.00 | 98 | 1020.3 |
| 20260831111819 | 62 | 195 | 0.0 | 0.0 | 0.00 | 0.04 | 0.00 | 98 | 1020.2 |
| 20260831105702 | 62 | 195 | 0.0 | 0.0 | 0.00 | 0.04 | 0.00 | 98 | 1019.8 |
| 20260831104718 | 62 | 195 | 0.0 | 0.0 | 0.00 | 0.04 | 0.00 | 98 | 1019.8 |
| 20260831103712 | 62 | 195 | 0.0 | 0.0 | 0.00 | 0.04 | 0.00 | 98 | 1019.7 |
| 20260831102737 | 62 | 195 | 0.0 | 0.0 | 0.00 | 0.04 | 0.00 | 98 | 1019.5 |
| 20260831101736 | 62 | 196 | 0.0 | 0.0 | 0.00 | 0.04 | 0.00 | 98 | 1019.4 |
| 20260831095636 | 62 | 136 | 0.0 | 0.0 | 0.00 | 0.04 | 0.00 | 98 | 1019.4 |
| 20260831093552 | 62 | 136 | 0.0 | 0.0 | 0.00 | 0.04 | 0.00 | 98 | 1019.3 |
| 20260831092559 | 62 | 136 | 0.0 | 0.0 | 0.00 | 0.04 | 0.00 | 98 | 1019.4 |
| 20260831091543 | 62 | 253 | 0.0 | 0.0 | 0.00 | 0.04 | 0.00 | 98 | 1019.3 |
| 20260831090523 | 62 | 253 | 0.0 | 0.0 | 0.00 | 0.04 | 0.00 | 98 | 1019.5 |
| 20260831085546 | 62 | 253 | 0.0 | 0.0 | 0.00 | 0.04 | 0.00 | 98 | 1019.3 |
| 20260831084520 | 62 | 257 | 0.0 | 0.0 | 0.00 | 0.04 | 0.00 | 98 | 1019.3 |
| 20260831083456 | 62 | 257 | 0.0 | 0.0 | 0.00 | 0.04 | 0.00 | 97 | 1019.3 |
| 20260831081408 | 62 | 257 | 0.0 | 0.0 | 0.00 | 0.04 | 0.00 | 97 | 1019.6 |
| 20260831080345 | 62 | 257 | 0.0 | 0.0 | 0.00 | 0.04 | 0.00 | 97 | 1019.2 |
| 20260831075343 | 63 | 257 | 0.0 | 0.0 | 0.00 | 0.04 | 0.00 | 97 | 1019.4 |
| 20260831074334 | 63 | 257 | 0.0 | 0.0 | 0.00 | 0.04 | 0.00 | 97 | 1019.4 |
| 20260831072134 | 63 | 257 | 0.0 | 0.0 | 0.00 | 0.04 | 0.00 | 97 | 1019.2 |
| 20260831065937 | 63 | 257 | 0.0 | 0.0 | 0.00 | 0.04 | 0.00 | 97 | 1019.2 |
| 20260831063902 | 64 | 257 | 0.0 | 0.0 | 0.00 | 0.04 | 0.00 | 97 | 1019.2 |
| 20260831062921 | 64 | 257 | 0.0 | 0.0 | 0.00 | 0.04 | 0.00 | 97 | 1019.1 |
| 20260831060812 | 65 | 257 | 0.0 | 0.0 | 0.00 | 0.04 | 0.00 | 97 | 1019.1 |
| 20260831055801 | 65 | 257 | 0.0 | 0.0 | 0.00 | 0.04 | 0.00 | 97 | 1019.1 |
| 20260831054729 | 66 | 257 | 0.0 | 0.0 | 0.00 | 0.04 | 0.00 | 97 | 1019.0 |
| 20260831053743 | 66 | 257 | 0.0 | 0.0 | 0.00 | 0.04 | 0.00 | 97 | 1019.0 |
| 20260831052717 | 66 | 339 | 0.0 | 0.0 | 0.00 | 0.04 | 0.00 | 97 | 1018.8 |
| 20260831051717 | 66 | 340 | 0.0 | 0.0 | 0.00 | 0.04 | 0.00 | 97 | 1018.8 |
| 20260831050716 | 66 | 340 | 0.0 | 0.0 | 0.00 | 0.04 | 0.00 | 97 | 1018.7 |
| 20260831045739 | 67 | 340 | 0.0 | 0.0 | 0.00 | 0.04 | 0.00 | 97 | 1018.7 |
| 20260831044730 | 67 | 340 | 0.0 | 0.0 | 0.00 | 0.04 | 0.00 | 97 | 1018.7 |
| 20260831043704 | 67 | 339 | 0.0 | 0.0 | 0.00 | 0.04 | 0.00 | 97 | 1018.7 |
| 20260831042630 | 67 | 340 | 0.0 | 0.0 | 0.00 | 0.04 | 0.00 | 97 | 1018.6 |
| 20260831041646 | 67 | 340 | 0.0 | 0.0 | 0.00 | 0.04 | 0.00 | 97 | 1018.6 |
| 20260831035349 | 67 | 340 | 0.0 | 0.0 | 0.00 | 0.04 | 0.05 | 96 | 1018.7 |
| 20260831034350 | 67 | 340 | 0.0 | 0.0 | 0.00 | 0.04 | 0.05 | 96 | 1018.7 |
| 20260831033410 | 68 | 340 | 0.0 | 0.0 | 0.00 | 0.04 | 0.05 | 96 | 1018.8 |
| 20260831032423 | 68 | 340 | 0.0 | 0.0 | 0.00 | 0.04 | 0.05 | 96 | 1019.0 |
| 20260831030325 | 69 | 339 | 0.0 | 0.0 | 0.00 | 0.04 | 0.05 | 96 | 1019.0 |
| 20260831025341 | 69 | 340 | 0.0 | 0.0 | 0.00 | 0.04 | 0.04 | 96 | 1019.0 |
| 20260831020913 | 70 | 23 | 0.0 | 0.0 | 0.00 | 0.03 | 0.03 | 96 | 1019.2 |
| 20260831015854 | 70 | 75 | 0.0 | 0.0 | 0.00 | 0.03 | 0.03 | 96 | 1019.1 |
| 20260831014859 | 70 | 65 | 0.0 | 0.0 | 0.00 | 0.02 | 0.02 | 96 | 1018.9 |
| 20260831013920 | 70 | 65 | 0.0 | 0.0 | 0.00 | 0.02 | 0.02 | 96 | 1018.8 |
| 20260831012927 | 71 | 54 | 0.0 | 0.0 | 0.00 | 0.02 | 0.02 | 96 | 1018.6 |
| 20260831011917 | 71 | 56 | 0.0 | 0.0 | 0.00 | 0.02 | 0.02 | 95 | 1018.5 |
| 20260831010933 | 71 | 91 | 0.0 | 0.0 | 0.00 | 0.02 | 0.02 | 95 | 1018.5 |
| 20260831005952 | 71 | 91 | 0.0 | 0.0 | 0.00 | 0.02 | 0.02 | 95 | 1018.4 |
| 20260831004918 | 71 | 89 | 0.0 | 0.0 | 0.00 | 0.02 | 0.02 | 95 | 1018.3 |
| 20260831003922 | 71 | 96 | 0.0 | 0.0 | 0.00 | 0.01 | 0.01 | 94 | 1018.4 |
| 20260831002902 | 71 | 61 | 0.0 | 0.0 | 0.00 | 0.01 | 0.01 | 94 | 1018.3 |
| 20260831001908 | 71 | 75 | 0.0 | 0.0 | 0.00 | 0.01 | 0.01 | 93 | 1018.2 |
| 20260831000857 | 72 | 75 | 0.0 | 0.0 | 0.00 | 0.00 | 0.00 | 92 | 1018.1 |
| 20260830235856 | 72 | 77 | 0.0 | 0.0 | 0.00 | 0.00 | 0.00 | 91 | 1018.0 |
| 20260830234827 | 72 | 77 | 0.0 | 0.0 | 0.00 | 0.00 | 0.00 | 91 | 1017.8 |
| 20260830232650 | 73 | 77 | 0.0 | 0.0 | 0.00 | 0.00 | 0.00 | 89 | 1017.8 |
| 20260830225334 | 73 | 48 | 0.0 | 0.0 | 0.00 | 0.00 | 0.00 | 88 | 1017.7 |
| 20260830224307 | 74 | 48 | 0.0 | 0.0 | 0.00 | 0.00 | 0.00 | 87 | 1017.8 |
| 20260830223324 | 74 | 48 | 0.0 | 0.0 | 0.00 | 0.00 | 0.00 | 87 | 1017.8 |
| 20260830222338 | 74 | 48 | 0.0 | 0.0 | 0.00 | 0.00 | 0.00 | 86 | 1017.7 |
| 20260830221312 | 74 | 48 | 0.0 | 0.0 | 0.00 | 0.00 | 0.00 | 86 | 1017.8 |
| 20260830220237 | 74 | 141 | 0.0 | 0.0 | 0.00 | 0.00 | 0.00 | 86 | 1017.9 |
| 20260830215227 | 74 | 325 | 0.0 | 0.0 | 0.00 | 0.00 | 0.00 | 86 | 1017.9 |
| 20260830214206 | 74 | 300 | 0.0 | 0.0 | 0.00 | 0.00 | 0.00 | 85 | 1017.9 |
| 20260830213201 | 74 | 321 | 0.0 | 0.0 | 0.00 | 0.00 | 0.00 | 85 | 1017.7 |
| 20260830212150 | 75 | 301 | 0.0 | 0.0 | 0.00 | 0.00 | 0.00 | 85 | 1017.8 |
| 20260830211130 | 75 | 323 | 0.0 | 2.0 | 0.00 | 0.00 | 0.00 | 84 | 1017.8 |
| 20260830210136 | 75 | 19 | 0.0 | 0.0 | 0.00 | 0.00 | 0.00 | 84 | 1018.0 |
| 20260830205119 | 75 | 4 | 0.0 | 0.0 | 0.00 | 0.00 | 0.00 | 83 | 1018.0 |
| 20260830204143 | 74 | 69 | 0.0 | 0.0 | 0.00 | 0.00 | 0.00 | 84 | 1018.2 |
| 20260830202532 | 74 | 120 | 0.0 | 0.0 | 0.00 | 0.00 | 0.00 | 83 | 1018.3 |
| 20260830201505 | 74 | 321 | 0.0 | 2.0 | 0.00 | 0.00 | 0.00 | 82 | 1018.3 |
| 20260830195413 | 75 | 93 | 0.0 | 0.0 | 0.00 | 0.00 | 0.00 | 82 | 1018.3 |
| 20260830192029 | 75 | 352 | 0.0 | 6.0 | 0.00 | 0.00 | 0.00 | 78 | 1018.8 |
| 20260830190001 | 76 | 328 | 0.0 | 0.0 | 0.00 | 0.00 | 0.00 | 75 | 1019.2 |
| 20260830184936 | 76 | 249 | 0.0 | 1.0 | 0.00 | 0.00 | 0.00 | 73 | 1019.1 |
| 20260830183913 | 77 | 250 | 0.0 | 5.0 | 0.00 | 0.00 | 0.00 | 71 | 1019.2 |
| 20260830181817 | 78 | 139 | 0.0 | 3.0 | 0.00 | 0.00 | 0.00 | 69 | 1019.5 |
| 20260830180744 | 79 | 143 | 0.0 | 4.0 | 0.00 | 0.00 | 0.00 | 67 | 1019.5 |
| 20260830175806 | 79 | 14 | 0.0 | 4.0 | 0.00 | 0.00 | 0.00 | 66 | 1019.6 |
| 20260830174740 | 79 | 146 | 0.0 | 2.0 | 0.00 | 0.00 | 0.00 | 68 | 1019.6 |
| 20260830172614 | 78 | 40 | 0.0 | 3.0 | 0.00 | 0.00 | 0.00 | 70 | 1019.8 |
| 20260830171546 | 77 | 128 | 0.0 | 1.0 | 0.00 | 0.00 | 0.00 | 71 | 1020.0 |
| 20260830165357 | 77 | 82 | 0.0 | 0.0 | 0.00 | 0.00 | 0.00 | 66 | 1020.2 |
| 20260830164418 | 77 | 11 | 0.0 | 3.0 | 0.00 | 0.00 | 0.00 | 65 | 1020.1 |
| 20260830162301 | 76 | 305 | 0.0 | 1.0 | 0.00 | 0.00 | 0.00 | 64 | 1020.4 |
| 20260830161323 | 77 | 100 | 0.0 | 0.0 | 0.00 | 0.00 | 0.00 | 64 | 1020.6 |
| 20260830160321 | 76 | 345 | 0.0 | 2.0 | 0.00 | 0.00 | 0.00 | 64 | 1020.8 |
| 20260830155254 | 77 | 20 | 0.0 | 1.0 | 0.00 | 0.00 | 0.00 | 63 | 1020.8 |
| 20260830154237 | 76 | 351 | 0.0 | 1.0 | 0.00 | 0.00 | 0.00 | 66 | 1020.9 |
| 20260830153254 | 76 | 4 | 0.0 | 0.0 | 0.00 | 0.00 | 0.00 | 67 | 1021.1 |
| 20260830152306 | 75 | 323 | 0.0 | 0.0 | 0.00 | 0.00 | 0.00 | 67 | 1021.2 |
| 20260830151240 | 75 | 113 | 0.0 | 0.0 | 0.00 | 0.00 | 0.00 | 67 | 1021.3 |
| 20260830150233 | 75 | 342 | 0.0 | 1.0 | 0.00 | 0.00 | 0.00 | 65 | 1021.5 |
| 20260830145212 | 75 | 163 | 0.0 | 0.0 | 0.00 | 0.00 | 0.00 | 67 | 1021.6 |
| 20260830144208 | 74 | 333 | 0.0 | 3.0 | 0.00 | 0.00 | 0.00 | 70 | 1021.6 |